Theta_e
312 312 313 314 314 316 317 317 319 321 323 329 331 332 334 338 343 347 348 344 343 339 337 340 331 328 321 323 325 322 319 316 314 314 317 315 315 314 312 312 311 312 312
310 310 310 311 314 315 315 316 317 318 320 325 329 331 334 335 341 342 339 340 340 334 331 330 326 320 315 313 316 314 311 314 311 313 312 311 311 311 311 310 310 311 312
308 308 308 309 309 311 313 316 316 318 320 321 328 330 332 335 337 338 336 335 336 332 329 325 321 314 312 310 310 308 307 308 308 308 309 309 309 309 308 311 311 313 312
305 304 304 307 309 309 310 313 316 320 323 323 329 332 331 334 337 335 332 328 324 322 318 313 313 310 310 309 309 308 306 307 308 307 306 306 307 308 308 307 308 310 310
302 303 305 307 306 308 310 315 318 320 321 325 330 332 333 333 329 329 323 313 310 307 308 305 306 306 306 305 303 305 306 306 305 303 303 305 305 305 305 306 306 308 310
302 304 305 306 308 311 315 322 320 324 327 328 327 324 320 318 308 310 310 308 306 303 302 303 305 304 303 303 303 301 302 306 304 302 303 303 306 306 306 305 306 303 302
302 302 303 305 308 308 309 308 307 308 309 309 310 310 309 308 304 304 305 306 304 302 303 302 302 302 301 300 300 300 300 299 301 306 306 305 306 306 305 304 304 302 304
300 301 302 305 305 306 304 303 303 304 303 302 303 304 303 302 301 301 303 303 301 301 302 301 300 300 301 301 301 301 303 302 303 305 307 306 305 305 305 305 306 308 309
298 300 302 302 302 301 300 300 300 299 298 298 299 299 298 299 299 300 301 299 298 298 298 298 299 299 297 298 301 301 302 303 297 297 297 296 296 295 298 305 305 303 303
297 299 300 300 298 297 297 298 298 297 296 296 296 297 297 296 296 297 298 298 296 295 295 295 295 296 295 296 303 303 302 303 305 307 308 304 302 306 299 306 303 300 303
298 299 298 297 296 296 296 296 296 295 295 295 295 295 295 296 296 296 297 297 295 295 294 294 295 294 294 294 296 301 299 302 302 307 309 309 309 310 308 307 306 304 303
297 295 296 296 296 296 295 295 295 295 294 293 293 292 294 295 296 295 295 296 297 296 295 295 294 291 291 292 296 292 294 297 306 306 306 306 306 306 306 309 308 307 306
295 293 293 294 294 294 294 294 293 294 293 292 291 290 292 294 294 294 294 294 296 296 295 293 292 291 291 294 293 294 299 305 305 305 304 305 306 307 310 308 309 307 306
291 292 292 292 292 293 293 293 292 292 292 290 290 290 292 292 293 294 295 296 295 296 296 297 295 295 295 298 301 302 304 303 303 304 304 306 307 308 307 306 303 303 302
293 292 292 292 291 291 292 292 291 292 292 291 291 291 291 291 292 293 295 296 297 296 298 299 298 298 298 299 301 302 303 304 304 305 305 305 305 306 305 305 304 302 300
292 292 292 292 291 292 290 290 291 291 291 290 291 292 292 290 290 290 290 290 290 291 298 297 296 296 296 297 298 300 302 302 303 304 304 304 304 304 303 303 302 301 299
291 291 292 292 293 294 293 291 288 290 290 289 289 289 289 289 289 289 290 289 290 293 296 296 295 296 296 296 297 298 300 302 304 303 303 304 302 302 302 301 301 300 297
293 293 293 295 296 295 294 294 293 291 289 289 289 290 289 289 289 289 289 292 296 295 296 295 295 296 296 296 297 297 299 301 302 302 302 302 301 301 301 300 300 297 294
293 295 296 297 297 296 297 295 293 292 290 290 291 291 290 289 290 290 292 296 295 295 295 296 296 296 297 297 297 297 299 300 301 302 301 301 300 301 301 299 300 292 292
295 293 295 296 295 295 295 294 294 294 293 293 293 293 295 294 295 295 296 296 296 296 296 296 296 297 297 297 297 297 298 299 300 300 300 301 301 301 300 298 299 297 294
298 297 290 296 296 296 296 295 295 294 293 292 292 292 285 295 295 295 295 295 295 296 296 296 296 296 297 297 297 296 297 299 300 300 300 302 302 301 300 301 299 298 294
296 296 296 296 297 297 297 296 295 294 293 293 293 293 287 296 295 295 295 296 296 297 297 297 296 296 296 296 296 295 296 298 299 300 301 301 301 300 300 298 295 294 292
296 296 296 297 297 293 297 296 294 294 294 294 295 294 295 295 295 295 295 296 296 296 297 297 296 296 297 297 296 295 295 297 299 301 301 301 300 297 297 296 293 290 290
297 298 298 297 297 297 296 295 294 291 294 294 295 294 295 295 295 296 296 296 296 297 297 297 296 295 296 295 295 294 294 294 298 301 302 301 298 296 295 292 291 290 291
297 297 297 297 296 295 295 295 294 294 294 294 294 294 294 294 294 295 296 296 296 296 296 296 296 295 294 293 292 293 287 285 293 288 302 302 297 295 293 292 292 291 291
296 296 297 297 297 297 296 294 294 294 293 293 293 293 293 293 294 295 296 296 296 296 295 295 295 295 294 292 291 285 285 285 291 286 300 301 297 294 294 294 291 290 290
Wind_Speed
18 19 16 15 17 17 15 16 17 15 16 20 19 19 19 19 17 15 16 15 15 10 9 12 11 13 6 3 3 4 3 3 3 3 1 5 5 3 6 7 9 8 6
20 18 19 16 17 18 19 19 15 16 15 18 19 19 18 19 17 16 12 10 15 14 13 12 12 9 9 9 2 6 4 5 1 4 3 4 2 3 5 9 6 7 7
20 18 18 20 19 18 19 18 16 17 16 15 19 19 19 18 17 12 10 13 13 12 13 13 13 12 10 6 10 6 2 7 2 2 3 2 2 3 7 5 6 7 6
17 17 18 20 19 18 19 18 19 17 18 15 18 19 19 17 13 12 12 11 9 11 11 11 11 9 11 9 10 6 5 4 3 2 1 1 2 3 5 7 7 7 8
17 17 18 18 18 19 19 18 16 16 14 16 18 16 9 10 8 15 15 15 16 16 15 13 12 14 12 13 7 7 2 4 3 2 2 1 4 5 6 7 7 8 8
17 18 18 18 17 15 16 12 12 11 8 7 5 11 12 7 15 20 20 16 15 17 18 16 14 15 19 21 22 18 11 4 3 4 3 3 4 5 6 8 7 8 8
17 17 17 16 13 10 9 10 12 12 12 12 11 13 14 15 23 25 26 15 15 15 15 14 11 8 14 11 19 16 11 9 8 5 5 6 5 7 7 8 8 8 9
15 15 15 13 9 8 8 10 12 12 13 12 14 15 17 13 26 28 27 19 17 16 13 11 10 7 10 9 11 8 5 7 5 6 6 6 6 8 7 7 8 8 7
14 14 12 10 9 9 10 10 11 14 15 16 14 17 18 15 22 25 24 18 18 16 13 11 8 7 6 9 10 8 6 6 7 7 3 3 6 7 5 8 8 8 8
13 12 10 10 10 11 10 11 12 15 17 15 18 17 22 17 22 22 19 14 17 12 13 9 15 9 11 8 8 6 7 7 6 6 4 7 10 6 8 5 6 7 8
11 10 10 11 11 11 13 12 12 15 18 17 19 16 17 17 19 22 19 13 12 12 10 8 6 12 13 14 13 9 6 6 4 4 4 5 5 6 6 5 4 7 8
10 11 11 11 10 11 15 13 13 13 17 17 17 15 13 14 21 23 21 16 15 10 10 10 9 14 14 11 8 5 8 7 6 5 6 6 6 6 6 6 7 6 7
10 11 11 12 12 12 14 14 13 12 13 14 13 13 11 11 13 23 17 14 12 12 11 11 10 10 12 9 5 9 6 8 7 7 6 6 5 5 6 7 6 8 9
11 11 11 12 14 13 12 12 13 11 12 12 12 12 10 11 10 9 9 11 15 13 11 8 10 9 7 7 5 7 9 8 8 7 6 6 6 6 7 8 8 8 7
9 10 11 10 14 15 16 14 14 14 11 11 11 9 8 9 5 6 9 9 9 7 8 8 8 9 10 9 9 10 10 9 7 7 7 7 8 8 9 9 9 8 8
9 8 9 10 12 13 15 16 28 25 25 23 19 12 10 13 16 16 15 10 7 6 9 10 10 10 10 10 10 10 9 8 8 8 8 9 9 9 10 8 8 9 9
10 10 9 12 11 12 12 12 13 18 26 24 22 20 16 14 14 12 9 9 8 7 11 10 10 10 10 10 9 9 9 9 10 9 9 10 10 9 8 8 8 9 10
13 18 11 11 11 11 10 11 10 11 11 12 14 13 13 11 9 6 0 6 11 12 11 11 11 11 10 9 9 10 10 10 9 10 10 10 8 8 8 9 9 10 7
10 9 10 10 10 11 11 12 11 11 12 12 11 12 12 11 11 12 11 11 12 12 11 11 10 10 10 10 9 10 10 10 11 10 9 8 8 8 9 9 9 8 6
10 13 11 11 10 12 11 11 10 11 11 11 11 9 8 8 11 11 11 12 12 11 10 10 10 10 10 10 11 10 10 11 10 10 8 8 8 8 10 11 10 10 9
7 9 8 9 9 10 9 10 10 11 10 11 11 11 9 11 11 12 12 12 11 11 10 10 11 11 11 11 11 11 11 10 10 9 8 9 9 9 9 9 11 10 8
6 8 8 8 8 10 11 11 11 12 12 12 12 9 5 10 11 11 11 11 11 11 10 10 10 10 11 11 12 12 11 10 10 10 9 10 10 10 10 10 11 10 9
5 8 8 9 10 9 11 11 11 12 12 11 11 10 10 10 10 11 11 11 10 11 11 12 11 11 11 11 11 11 11 11 10 10 10 10 11 11 10 10 10 10 10
5 9 10 9 9 10 10 11 11 11 11 11 10 10 10 10 10 12 11 10 10 10 11 11 12 15 12 11 11 12 11 11 9 10 12 11 11 11 11 10 9 11 9
7 8 10 9 10 11 11 11 10 11 10 10 10 10 10 10 10 10 9 10 10 11 13 12 11 13 15 18 18 17 12 12 13 12 10 12 14 14 12 9 11 9 13
6 8 9 9 9 10 10 10 11 10 10 10 10 9 9 9 9 9 10 11 10 11 12 10 13 17 18 16 17 12 11 12 14 13 11 11 12 11 10 13 16 10 12
Wind_Direction
306 304 297 294 292 285 274 269 266 264 262 265 255 248 241 237 229 219 229 215 203 178 179 189 169 151 136 111 206 160 128 303 275 118 176 149 233 274 321 324 295 302 299
309 303 297 293 289 286 280 276 264 261 255 260 255 248 237 230 225 217 206 193 197 180 181 166 160 140 107 115 352 66 87 52 360 216 68 196 231 326 315 302 320 311 316
312 305 303 297 293 283 278 270 261 257 252 248 254 241 236 227 219 194 167 191 195 173 160 154 148 128 137 143 137 134 80 94 237 171 166 214 324 12 309 299 325 312 298
312 305 298 294 290 288 279 266 258 251 250 234 243 232 231 221 193 168 159 147 114 112 111 118 122 123 126 128 107 92 84 120 128 148 166 350 1 352 311 348 330 343 330
310 302 297 300 294 286 278 263 253 244 245 243 236 226 207 170 144 156 127 118 117 110 105 99 98 105 108 105 107 74 107 143 157 139 64 306 26 349 2 340 332 343 323
310 312 311 306 301 301 302 259 236 253 256 238 193 137 121 109 119 119 117 117 117 112 112 105 103 104 93 94 85 69 47 94 129 50 69 49 30 10 5 353 339 349 337
318 317 315 309 316 341 355 44 58 64 66 74 83 94 96 103 112 112 113 112 109 106 108 109 115 107 103 103 99 95 75 67 55 76 71 44 13 3 349 339 347 330 317
323 322 322 325 348 5 28 54 65 71 70 73 73 86 93 94 103 105 103 100 96 93 93 88 97 131 131 115 97 106 117 84 49 57 52 38 11 357 343 321 297 306 297
334 330 340 352 20 32 42 54 68 78 75 72 74 78 85 87 98 104 103 97 93 88 82 82 89 108 96 102 112 119 115 106 140 133 144 175 226 226 274 308 5 333 332
344 339 6 19 41 52 51 58 68 78 83 81 78 73 79 79 75 84 96 103 100 95 83 80 68 58 45 41 108 113 87 64 33 49 105 197 226 171 201 315 321 321 332
350 2 32 43 54 57 64 63 75 85 88 83 82 74 72 70 68 71 80 89 92 94 95 86 85 60 50 43 47 53 45 322 112 31 22 27 17 23 16 355 327 318 327
15 31 42 52 61 68 73 71 73 81 88 85 81 76 67 66 69 67 67 74 93 98 101 97 85 72 60 42 65 347 306 293 40 35 29 27 8 13 338 2 359 335 322
43 48 48 56 58 63 74 76 77 72 77 84 79 78 76 74 71 69 69 72 81 86 85 97 116 123 132 101 48 344 11 34 34 33 23 17 2 1 337 16 352 356 334
55 54 54 64 69 66 69 70 74 70 76 78 78 79 80 78 80 86 101 97 103 101 117 101 94 105 99 71 71 50 51 39 19 21 15 4 11 11 13 13 1 357 329
58 71 75 76 78 75 69 68 70 61 59 77 75 78 84 90 63 65 83 94 97 103 115 103 81 68 62 57 56 46 42 31 25 21 21 15 21 15 14 10 351 341 339
61 63 72 82 79 79 81 76 55 61 58 59 65 70 70 76 71 68 60 45 28 331 87 78 70 62 55 49 42 39 37 29 20 21 23 22 19 9 3 355 352 350 354
68 72 77 77 82 85 83 82 88 70 67 66 69 66 73 89 76 74 72 65 35 88 75 70 64 57 52 45 38 36 31 28 20 25 25 24 12 355 357 352 356 6 3
79 78 77 76 80 82 84 85 85 88 89 84 67 86 71 66 55 28 352 109 79 65 64 60 57 53 46 41 38 32 30 22 25 26 23 21 1 345 355 3 5 5 353
70 74 76 76 77 83 90 96 100 100 103 107 107 90 81 75 62 41 44 71 71 67 61 58 53 49 44 41 30 34 35 31 20 21 15 9 358 350 6 4 358 9 356
75 74 88 97 100 108 113 116 110 105 103 99 98 98 105 95 76 73 69 67 66 63 61 58 54 45 38 33 30 25 29 30 24 17 4 1 6 4 9 6 0 6 7
79 100 126 126 117 102 96 95 96 96 88 80 67 54 24 83 77 70 65 61 62 60 54 50 49 42 37 32 22 23 25 23 21 12 3 6 9 11 11 2 2 14 19
98 114 106 105 114 105 104 104 103 102 101 98 96 83 36 79 77 75 73 68 63 56 49 49 50 43 36 32 23 14 16 18 16 7 12 10 15 12 10 14 14 7 3
116 121 106 94 98 113 104 102 103 106 105 101 93 87 82 81 79 76 73 69 65 60 52 47 43 42 39 27 31 21 16 6 3 10 14 19 24 9 11 13 14 6 3
139 121 116 108 100 98 94 91 88 82 94 94 89 87 84 78 75 73 72 69 64 60 56 54 50 46 33 32 29 33 23 1 10 4 19 31 34 14 19 13 12 6 3
117 111 113 112 105 106 110 104 102 99 95 92 90 88 86 84 81 78 77 73 69 65 61 51 47 49 44 39 33 33 8 339 1 333 29 39 42 27 23 17 18 18 20
111 115 116 114 111 108 107 106 105 103 99 96 93 89 91 91 88 82 78 75 73 69 66 56 50 49 43 39 31 12 348 348 359 339 29 41 41 29 26 28 27 23 22